SCP
0 0 0 0 0 0 0 0 0 0 0 0 0 0 0 0 0 0 0 0 0 0 0 0 0 0 0 0 0 0 0 0 -0 0 0 -0 0 1
0 0 0 0 0 0 0 0 0 0 0 0 0 0 0 0 0 0 0 0 0 0 0 0 0 0 0 0 0 0 0 0 0 0 0 0 0 0
0 0 0 0 0 0 0 0 0 0 0 0 0 0 0 0 0 0 0 0 0 0 0 0 0 0 0 0 0 0 0 0 0 0 0 0 0 0
0 0 0 0 0 0 0 0 0 0 0 0 0 0 -0 0 0 0 0 0 0 0 0 0 0 0 0 0 0 0 0 0 0 0 0 0 0 0
0 0 0 0 0 0 0 0 0 0 0 0 0 0 0 0 0 0 0 0 0 0 0 0 0 0 0 0 0 0 0 0 0 0 0 0 0 0
0 0 0 0 0 0 0 0 0 0 0 0 0 0 0 0 0 0 0 0 0 0 0 0 0 0 0 0 0 0 0 0 0 0 0 0 0 0
0 0 0 0 0 0 0 0 0 0 0 0 0 0 0 0 0 0 0 0 0 0 0 0 0 0 0 0 0 -0 -0 0 0 0 0 0 0 0
0 0 0 0 0 0 0 0 0 0 0 0 0 0 0 0 0 0 0 0 0 0 0 0 0 0 0 0 -0 -0 -0 -0 0 0 0 0 0 0
0 0 0 0 0 0 0 0 0 0 0 0 0 0 0 0 0 0 0 0 0 0 0 0 0 0 0 0 0 -0 -0 -0 -0 0 0 0 0 0
0 0 0 0 0 0 0 0 0 0 0 0 0 0 0 0 0 0 0 0 0 0 0 0 0 0 0 0 0 0 0 -0 -0 -0 0 0 0 0
0 0 0 0 0 0 0 0 0 0 0 0 0 0 0 0 0 0 0 0 0 0 0 0 0 0 0 0 0 0 0 0 -0 -0 0 0 0 0
0 0 0 0 0 0 0 0 0 0 0 0 0 0 0 0 0 0 0 0 0 0 0 0 0 0 0 0 0 0 0 0 0 -0 -0 0 -0 0
0 0 0 0 0 0 0 0 0 0 0 0 0 0 0 0 0 0 0 0 -0 -0 -0 0 0 0 0 0 0 0 0 0 0 0 -0 0 -0 0
0 0 0 0 0 0 0 0 0 0 0 0 -0 -0 0 0 0 0 0 0 0 0 0 0 0 0 0 0 0 0 0 0 0 0 0 0 0 0
0 0 0 0 0 0 0 0 0 0 0 0 0 -0 0 0 0 0 0 0 0 0 0 0 0 0 0 0 0 0 0 0 0 0 0 0 0 0
0 0 0 0 0 0 0 0 0 0 0 0 0 0 0 0 0 0 0 0 0 0 0 0 0 0 0 0 0 0 0 0 0 0 0 0 0 0
0 0 0 0 0 0 0 0 0 0 0 0 0 0 0 0 0 0 0 0 0 0 0 0 0 0 0 0 0 0 0 0 0 0 0 0 0 0
0 0 0 0 0 0 0 0 0 0 0 0 0 0 0 0 0 0 0 0 0 0 0 0 0 0 0 0 0 0 0 0 0 0 0 0 0 0
0 0 0 0 0 0 0 0 0 0 0 0 0 0 0 0 0 0 0 0 0 0 0 0 0 0 0 0 0 0 0 0 0 0 0 0 0 0
0 0 0 0 0 0 0 0 0 0 0 0 0 0 0 0 0 0 0 0 0 0 0 0 0 0 0 0 0 0 0 0 0 0 0 0 0 0
0 0 0 0 0 0 0 0 0 0 0 0 0 0 0 0 0 0 0 0 0 0 0 0 0 0 0 0 0 0 0 0 0 0 0 0 0 0
0 0 0 0 0 0 0 0 0 0 0 0 0 0 0 0 0 0 0 0 0 0 0 0 0 0 0 0 0 0 0 0 0 0 0 0 0 0
0 0 0 0 0 0 0 0 0 0 0 0 0 0 0 0 0 0 0 0 0 0 0 0 0 0 0 0 0 0 0 0 0 0 0 0 0 0
Wind_Speed_500mb
6 26 25 20 16 15 16 12 11 6 7 22 19 8 12 17 29 33 27 27 16 18 13 15 18 20 23 25 36 40 40 49 55 60 74 67 61 62
7 23 22 10 11 13 16 14 10 10 8 12 12 6 13 30 23 18 17 17 10 4 11 20 25 26 27 28 26 34 45 41 47 44 54 68 71 69
11 17 21 21 18 17 13 16 12 10 13 17 5 10 20 18 11 23 6 4 3 5 15 25 28 20 18 23 28 30 35 44 47 46 46 46 50 67
15 20 26 25 26 20 15 15 13 13 17 8 7 9 15 18 14 13 11 11 9 7 13 15 22 25 19 16 17 26 32 37 43 47 50 49 44 39
19 18 19 24 21 20 18 15 13 13 18 10 6 5 14 9 3 2 2 9 6 7 14 16 17 22 26 25 18 14 15 20 31 40 45 46 48 47
20 19 16 16 20 21 19 18 18 19 21 12 12 24 13 7 12 12 15 5 5 3 22 17 20 12 18 28 36 22 13 15 23 30 35 40 46 53
21 15 15 14 14 14 10 13 19 20 15 16 16 14 12 15 25 12 14 3 6 4 22 12 6 13 19 20 28 34 30 17 17 20 26 29 33 37
18 17 15 14 13 13 8 6 20 22 19 15 4 11 18 15 14 7 6 3 9 3 10 21 19 16 14 19 22 31 33 35 19 19 22 22 22 24
16 17 15 13 12 9 11 12 14 16 16 5 3 13 8 21 18 6 5 4 6 3 12 14 10 13 16 17 21 26 23 33 27 20 16 18 22 25
18 17 11 14 10 7 12 15 11 4 3 7 13 10 11 13 17 12 8 9 23 9 17 13 13 17 26 30 23 16 18 24 28 29 21 15 15 19
23 26 24 18 12 11 16 15 11 9 3 12 10 10 12 14 13 7 13 18 18 15 12 19 20 27 33 19 5 6 19 22 15 23 24 21 22 18
19 19 17 13 6 12 20 26 24 19 9 10 14 18 20 23 28 23 15 7 17 25 26 21 25 34 38 17 15 9 12 14 13 14 27 19 17 16
20 17 13 16 1 4 15 23 20 22 26 27 27 30 22 20 26 30 30 14 11 16 21 15 22 16 17 27 28 30 16 9 6 16 17 19 20 14
43 31 25 19 7 5 7 10 11 12 13 15 18 18 13 20 18 13 15 16 15 17 19 21 20 21 24 33 42 26 31 26 18 16 19 19 21 24
29 24 21 31 14 9 8 11 15 19 20 22 17 22 19 20 30 25 22 22 22 24 25 26 24 20 22 23 36 32 27 24 23 17 20 19 22 25
32 22 26 26 20 19 23 21 21 23 31 33 32 29 30 28 34 30 29 27 26 33 32 32 32 24 19 19 25 31 27 18 12 12 17 15 22 30
43 34 30 31 31 31 31 29 29 26 34 33 37 33 34 42 40 36 38 38 39 39 39 33 30 28 18 17 26 33 35 34 17 21 27 31 32 34
43 46 46 40 37 35 35 40 43 41 38 34 37 35 37 38 38 35 31 38 37 40 41 36 32 25 19 22 27 36 39 39 23 28 35 41 42 33
42 39 41 39 36 34 37 39 41 41 38 42 38 38 39 37 40 40 36 37 36 38 39 31 30 22 27 37 38 37 34 32 33 38 38 37 28 19
49 47 41 38 39 43 42 44 46 49 40 38 42 44 38 37 34 34 31 31 41 34 40 41 36 38 36 44 41 29 33 43 47 48 40 35 31 31
46 47 45 44 42 42 46 48 40 46 42 39 43 41 32 35 36 34 30 31 40 45 28 33 30 29 21 25 31 36 41 35 32 33 38 36 37 41
49 46 46 44 44 44 45 47 44 52 46 43 32 34 40 40 38 33 30 30 27 28 32 31 31 28 28 33 36 41 39 33 28 33 39 40 44 45
50 46 45 49 50 47 45 39 42 40 38 35 37 28 40 43 36 33 28 30 33 34 34 35 31 29 29 36 40 40 34 34 37 39 39 37 41 41
Wind_Direction_500mb
207 188 207 221 231 224 216 211 196 155 94 174 176 207 274 304 304 290 284 287 265 287 301 299 294 286 277 268 252 245 243 239 237 232 231 237 245 242
219 194 210 210 181 162 191 190 185 160 111 161 165 183 322 336 324 323 269 262 256 276 327 325 315 300 279 268 262 248 245 246 239 241 245 240 243 244
225 188 195 168 160 161 173 190 187 184 141 112 64 30 358 351 38 57 82 354 278 314 342 344 346 327 297 275 261 253 247 243 240 239 243 241 256 248
183 169 171 184 184 189 191 201 211 198 146 127 135 12 5 27 38 56 46 13 1 313 322 350 1 13 351 319 295 263 252 248 246 250 251 250 248 246
171 165 177 183 190 187 178 186 148 164 167 136 145 141 133 123 307 315 68 18 102 283 326 321 324 352 4 357 350 326 291 288 265 257 253 250 249 250
178 183 185 181 198 196 199 199 186 144 155 177 183 177 203 252 301 300 249 250 45 1 340 313 319 320 355 356 2 344 312 280 275 266 259 261 257 253
193 191 195 194 189 193 198 178 183 178 174 171 168 189 231 297 310 303 270 288 165 253 351 307 331 342 347 345 1 356 353 321 287 277 268 261 262 261
194 169 171 165 165 177 206 208 199 221 220 212 202 322 316 330 340 298 254 241 181 300 9 24 8 336 324 344 346 350 346 349 331 291 280 275 270 271
205 195 169 142 140 140 136 122 104 111 80 100 1 23 64 46 14 107 46 60 329 268 308 1 333 328 15 2 346 330 339 352 2 346 314 289 276 272
184 166 190 206 245 240 180 144 132 104 1 5 30 59 59 45 56 44 36 21 4 0 232 289 296 304 303 298 292 302 323 344 350 1 357 344 328 296
196 193 212 230 242 230 208 189 190 199 276 232 298 310 329 323 324 32 63 42 11 343 310 285 294 309 317 299 243 316 304 321 322 346 343 339 345 339
213 200 220 226 220 213 204 206 206 222 235 214 238 263 295 297 294 284 288 347 345 336 320 288 300 311 315 279 242 294 336 328 275 300 327 325 330 343
223 214 212 188 5 241 212 219 231 244 247 259 263 275 285 321 308 264 268 296 322 339 351 340 341 345 344 326 302 266 277 296 306 316 308 305 312 309
229 234 237 211 217 295 212 197 213 241 260 274 273 234 280 305 308 268 263 292 300 303 315 319 320 333 341 344 342 318 248 253 276 279 291 277 298 308
209 236 230 214 214 224 219 227 245 253 267 281 267 258 271 299 285 279 283 285 287 287 285 286 299 305 316 328 338 345 326 290 257 275 322 283 289 303
202 182 185 200 228 251 254 259 263 277 284 282 279 285 277 281 298 275 282 278 271 280 282 266 279 275 293 310 321 325 333 317 321 318 310 292 301 315
215 213 217 226 244 242 254 269 278 279 280 286 279 286 281 270 267 258 284 271 275 273 282 278 271 270 273 292 300 310 311 310 284 296 288 298 296 298
216 223 231 238 242 250 270 276 273 275 284 283 288 280 294 259 264 251 288 272 271 273 280 278 256 258 251 261 282 297 298 304 274 262 276 296 296 295
209 215 218 229 240 256 269 273 283 284 282 279 278 282 276 264 250 260 283 279 277 279 278 284 247 249 252 264 284 284 290 297 265 266 287 296 286 289
219 224 232 241 247 260 265 272 287 281 286 277 268 283 268 248 257 272 283 294 293 279 276 271 247 271 269 280 286 281 288 292 286 284 284 285 275 272
229 236 246 252 261 273 272 269 264 269 273 282 268 281 264 274 274 276 278 279 286 278 268 251 275 294 286 280 277 290 303 295 287 294 293 288 287 287
242 242 240 248 259 278 280 281 271 273 273 268 260 258 271 272 278 268 267 264 254 238 266 278 286 277 273 277 278 292 303 308 299 293 286 284 286 283
233 238 247 254 265 271 283 266 263 268 276 275 269 280 278 261 257 257 257 270 271 269 277 282 280 271 264 281 287 287 288 296 298 297 295 291 286 291
Wind_Speed_850mb
6 26 25 20 16 15 16 12 11 6 7 22 19 8 12 17 29 33 27 27 16 18 13 15 18 20 23 25 36 40 40 49 55 60 74 67 61 62
7 23 22 10 11 13 16 14 10 10 8 12 12 6 13 30 23 18 17 17 10 4 11 20 25 26 27 28 26 34 45 41 47 44 54 68 71 69
11 17 21 21 18 17 13 16 12 10 13 17 5 10 20 18 11 23 6 4 3 5 15 25 28 20 18 23 28 30 35 44 47 46 46 46 50 67
15 20 26 25 26 20 15 15 13 13 17 8 7 9 15 18 14 13 11 11 9 7 13 15 22 25 19 16 17 26 32 37 43 47 50 49 44 39
19 18 19 24 21 20 18 15 13 13 18 10 6 5 14 9 3 2 2 9 6 7 14 16 17 22 26 25 18 14 15 20 31 40 45 46 48 47
20 19 16 16 20 21 19 18 18 19 21 12 12 24 13 7 12 12 15 5 5 3 22 17 20 12 18 28 36 22 13 15 23 30 35 40 46 53
21 15 15 14 14 14 10 13 19 20 15 16 16 14 12 15 25 12 14 3 6 4 22 12 6 13 19 20 28 34 30 17 17 20 26 29 33 37
18 17 15 14 13 13 8 6 20 22 19 15 4 11 18 15 14 7 6 3 9 3 10 21 19 16 14 19 22 31 33 35 19 19 22 22 22 24
16 17 15 13 12 9 11 12 14 16 16 5 3 13 8 21 18 6 5 4 6 3 12 14 10 13 16 17 21 26 23 33 27 20 16 18 22 25
18 17 11 14 10 7 12 15 11 4 3 7 13 10 11 13 17 12 8 9 23 9 17 13 13 17 26 30 23 16 18 24 28 29 21 15 15 19
23 26 24 18 12 11 16 15 11 9 3 12 10 10 12 14 13 7 13 18 18 15 12 19 20 27 33 19 5 6 19 22 15 23 24 21 22 18
19 19 17 13 6 12 20 26 24 19 9 10 14 18 20 23 28 23 15 7 17 25 26 21 25 34 38 17 15 9 12 14 13 14 27 19 17 16
20 17 13 16 1 4 15 23 20 22 26 27 27 30 22 20 26 30 30 14 11 16 21 15 22 16 17 27 28 30 16 9 6 16 17 19 20 14
43 31 25 19 7 5 7 10 11 12 13 15 18 18 13 20 18 13 15 16 15 17 19 21 20 21 24 33 42 26 31 26 18 16 19 19 21 24
29 24 21 31 14 9 8 11 15 19 20 22 17 22 19 20 30 25 22 22 22 24 25 26 24 20 22 23 36 32 27 24 23 17 20 19 22 25
32 22 26 26 20 19 23 21 21 23 31 33 32 29 30 28 34 30 29 27 26 33 32 32 32 24 19 19 25 31 27 18 12 12 17 15 22 30
43 34 30 31 31 31 31 29 29 26 34 33 37 33 34 42 40 36 38 38 39 39 39 33 30 28 18 17 26 33 35 34 17 21 27 31 32 34
43 46 46 40 37 35 35 40 43 41 38 34 37 35 37 38 38 35 31 38 37 40 41 36 32 25 19 22 27 36 39 39 23 28 35 41 42 33
42 39 41 39 36 34 37 39 41 41 38 42 38 38 39 37 40 40 36 37 36 38 39 31 30 22 27 37 38 37 34 32 33 38 38 37 28 19
49 47 41 38 39 43 42 44 46 49 40 38 42 44 38 37 34 34 31 31 41 34 40 41 36 38 36 44 41 29 33 43 47 48 40 35 31 31
46 47 45 44 42 42 46 48 40 46 42 39 43 41 32 35 36 34 30 31 40 45 28 33 30 29 21 25 31 36 41 35 32 33 38 36 37 41
49 46 46 44 44 44 45 47 44 52 46 43 32 34 40 40 38 33 30 30 27 28 32 31 31 28 28 33 36 41 39 33 28 33 39 40 44 45
50 46 45 49 50 47 45 39 42 40 38 35 37 28 40 43 36 33 28 30 33 34 34 35 31 29 29 36 40 40 34 34 37 39 39 37 41 41
Wind_Direction_850mb
207 188 207 221 231 224 216 211 196 155 94 174 176 207 274 304 304 290 284 287 265 287 301 299 294 286 277 268 252 245 243 239 237 232 231 237 245 242
219 194 210 210 181 162 191 190 185 160 111 161 165 183 322 336 324 323 269 262 256 276 327 325 315 300 279 268 262 248 245 246 239 241 245 240 243 244
225 188 195 168 160 161 173 190 187 184 141 112 64 30 358 351 38 57 82 354 278 314 342 344 346 327 297 275 261 253 247 243 240 239 243 241 256 248
183 169 171 184 184 189 191 201 211 198 146 127 135 12 5 27 38 56 46 13 1 313 322 350 1 13 351 319 295 263 252 248 246 250 251 250 248 246
171 165 177 183 190 187 178 186 148 164 167 136 145 141 133 123 307 315 68 18 102 283 326 321 324 352 4 357 350 326 291 288 265 257 253 250 249 250
178 183 185 181 198 196 199 199 186 144 155 177 183 177 203 252 301 300 249 250 45 1 340 313 319 320 355 356 2 344 312 280 275 266 259 261 257 253
193 191 195 194 189 193 198 178 183 178 174 171 168 189 231 297 310 303 270 288 165 253 351 307 331 342 347 345 1 356 353 321 287 277 268 261 262 261
194 169 171 165 165 177 206 208 199 221 220 212 202 322 316 330 340 298 254 241 181 300 9 24 8 336 324 344 346 350 346 349 331 291 280 275 270 271
205 195 169 142 140 140 136 122 104 111 80 100 1 23 64 46 14 107 46 60 329 268 308 1 333 328 15 2 346 330 339 352 2 346 314 289 276 272
184 166 190 206 245 240 180 144 132 104 1 5 30 59 59 45 56 44 36 21 4 0 232 289 296 304 303 298 292 302 323 344 350 1 357 344 328 296
196 193 212 230 242 230 208 189 190 199 276 232 298 310 329 323 324 32 63 42 11 343 310 285 294 309 317 299 243 316 304 321 322 346 343 339 345 339
213 200 220 226 220 213 204 206 206 222 235 214 238 263 295 297 294 284 288 347 345 336 320 288 300 311 315 279 242 294 336 328 275 300 327 325 330 343
223 214 212 188 5 241 212 219 231 244 247 259 263 275 285 321 308 264 268 296 322 339 351 340 341 345 344 326 302 266 277 296 306 316 308 305 312 309
229 234 237 211 217 295 212 197 213 241 260 274 273 234 280 305 308 268 263 292 300 303 315 319 320 333 341 344 342 318 248 253 276 279 291 277 298 308
209 236 230 214 214 224 219 227 245 253 267 281 267 258 271 299 285 279 283 285 287 287 285 286 299 305 316 328 338 345 326 290 257 275 322 283 289 303
202 182 185 200 228 251 254 259 263 277 284 282 279 285 277 281 298 275 282 278 271 280 282 266 279 275 293 310 321 325 333 317 321 318 310 292 301 315
215 213 217 226 244 242 254 269 278 279 280 286 279 286 281 270 267 258 284 271 275 273 282 278 271 270 273 292 300 310 311 310 284 296 288 298 296 298
216 223 231 238 242 250 270 276 273 275 284 283 288 280 294 259 264 251 288 272 271 273 280 278 256 258 251 261 282 297 298 304 274 262 276 296 296 295
209 215 218 229 240 256 269 273 283 284 282 279 278 282 276 264 250 260 283 279 277 279 278 284 247 249 252 264 284 284 290 297 265 266 287 296 286 289
219 224 232 241 247 260 265 272 287 281 286 277 268 283 268 248 257 272 283 294 293 279 276 271 247 271 269 280 286 281 288 292 286 284 284 285 275 272
229 236 246 252 261 273 272 269 264 269 273 282 268 281 264 274 274 276 278 279 286 278 268 251 275 294 286 280 277 290 303 295 287 294 293 288 287 287
242 242 240 248 259 278 280 281 271 273 273 268 260 258 271 272 278 268 267 264 254 238 266 278 286 277 273 277 278 292 303 308 299 293 286 284 286 283
233 238 247 254 265 271 283 266 263 268 276 275 269 280 278 261 257 257 257 270 271 269 277 282 280 271 264 281 287 287 288 296 298 297 295 291 286 291